This demonstration page uses our WeatherBlox Daily Observations layout. Learn more.

38.88101, -77.10428

Hourly Observations for March 24, 2020

Temp ( °F °C ) Dew Point ( °F °C ) Humidity (%) Winds ( mph kmh ) Pressure ( in mb ) Visibility ( mi km ) Precip ( " mm )
12:52 am 00:52 Cloudy 44 6.7 42 5.6 93 93 Calm 30.11 1020 10 16.0934 0 0
1:52 am 01:52 Cloudy 45 7.2 42 5.6 90 90 Calm 30.11 1020 10 16.0934 0 0
2:52 am 02:52 Cloudy 46 7.8 41 5 83 83 NW 6 9 30.11 1020 10 16.0934 0 0
3:52 am 03:52 Cloudy 46 7.8 41 5 83 83 WNW 6 9 30.11 1020 10 16.0934 0 0
4:52 am 04:52 Cloudy 46 7.8 41 5 83 83 N 7 11 30.12 1020 10 16.0934 0 0
5:52 am 05:52 Partly Cloudy 45 7.2 40 4.4 83 83 W 3 6 30.13 1020 10 16.0934 0 0
6:52 am 06:52 Mostly Cloudy 44 6.7 40 4.4 85 85 NW 5 7 30.15 1021 10 16.0934 0 0
7:52 am 07:52 Mostly Cloudy 47 8.3 41 5 80 80 NW 7 11 30.18 1022 10 16.0934 0 0
8:52 am 08:52 Mostly Cloudy 47 8.3 41 5 80 80 NW 8 13 30.2 1023 10 16.0934 0 0
9:52 am 09:52 Cloudy 48 8.9 40 4.4 74 74 VRB 6 9 30.21 1023 10 16.0934 0 0
10:52 am 10:52 Cloudy 49 9.4 40 4.4 71 71 NW 7 11 30.21 1023 10 16.0934 0 0
11:17 am 11:17 Cloudy 49 9.4 39 3.9 69 69 WNW 6 9 30.21 1023 10 16.0934 0 0
11:52 am 11:52 Cloudy 50 10 39 3.9 66 66 NNW 7 11 30.22 1023 10 16.0934 0 0
12:52 pm 12:52 Cloudy 52 11.1 39 3.9 61 61 NNW 8 13 30.19 1023 10 16.0934 0 0
1:52 pm 13:52 Cloudy 52 11.1 39 3.9 61 61 W 6 9 30.18 1022 10 16.0934 0 0
2:52 pm 14:52 Cloudy 53 11.7 39 3.9 59 59 ESE 5 7 30.14 1021 10 16.0934 0 0
3:52 pm 15:52 Mostly Cloudy 54 12.2 38 3.3 55 55 NE 5 7 30.1 1019 10 16.0934 0 0
4:52 pm 16:52 Mostly Cloudy 55 12.8 39 3.9 55 55 ENE 3 6 30.1 1019 10 16.0934 0 0
5:52 pm 17:52 Mostly Cloudy 53 11.7 39 3.9 59 59 Calm 30.12 1020 10 16.0934 0 0
6:52 pm 18:52 Mostly Cloudy 53 11.7 41 5 64 64 ESE 3 6 30.11 1020 10 16.0934 0 0
7:52 pm 19:52 Cloudy 52 11.1 41 5 66 66 ESE 16 26 30.11 1020 10 16.0934 0 0
8:52 pm 20:52 Cloudy 50 10 40 4.4 68 68 ESE 12 19 30.11 1020 10 16.0934 0 0
9:52 pm 21:52 Cloudy 50 10 39 3.9 66 66 SE 8 13 30.1 1019 10 16.0934 0 0
10:52 pm 22:52 Cloudy 50 10 39 3.9 66 66 SSE 5 7 30.09 1019 10 16.0934 0 0
11:52 pm 23:52 Cloudy 49 9.4 40 4.4 71 71 SE 7 11 30.06 1018 10 16.0934 0 0

Powered by AerisWeather